Regional Weather Roundup
Issued by NWS Grand Forks, ND

Home | Current Version | Previous Version | Text Only | Print | Product List | Glossary On
Versions: 1 2 3 4 5 6 7 8 9 10 11 12 13 14 15 16 17 18 19 20 21 22 23 24 25 26 27 28 29 30 31 32 33 34 35 36 37 38 39 40 41 42 43 44 45 46 47 48 49 50
000
ASUS43 KFGF 281210
RWRFGF
PRAIRIE TO PINES  WEATHER ROUNDUP
NATIONAL WEATHER SERVICE EASTERN NORTH DAKOTA/GRAND FORKS ND
700 AM CDT THU JUL 28 2016

 **SATELLITE DATA USED TO AUGMENT SKY COVER AT AUTOMATED STATIONS**
 *****  WEATHER ACROSS EASTERN NORTH DAKOTA  *****

CITY           SKY/WX    TMP DP  RH WIND       PRES   REMARKS
GRAND FORKS    CLOUDY    58  56  93 N5        30.11R
6HR MIN TEMP:  58; 6HR MAX TEMP:  62;

GRAND FRKS AFB PTCLDY    58  56  92 N9        30.13R
GRAND FRKS NWS   N/A     57 N/A N/A NE1         N/A
DEVILS LAKE    CLOUDY    56  55  97 N3        30.16S
6HR MIN TEMP:  53; 6HR MAX TEMP:  59;

FARGO          CLOUDY    63  60  90 N5        30.08R
WAHPETON ARPT  CLOUDY    61  59  94 CALM      30.08R
$$

 ***** WEATHER ACROSS CENTRAL AND WESTERN NORTH DAKOTA  *****

CITY           SKY/WX    TMP DP  RH WIND       PRES   REMARKS
BISMARCK       CLOUDY    63  59  87 E7        30.15R
6HR MIN TEMP:  62; 6HR MAX TEMP:  66; 6HR PCP: TRACE;

MINOT          CLOUDY    62  57  83 NE5       30.16S
6HR MIN TEMP:  61; 6HR MAX TEMP:  66; 6HR PCP: TRACE;

JAMESTOWN      MOCLDY    57  55  93 N7        30.12S
6HR MIN TEMP:  55; 6HR MAX TEMP:  61;

MINOT AFB      CLOUDY    59  56  89 E6        30.15S
GARRISON         N/A     61  59  93 NE3       30.15S
WILLISTON      CLEAR     60  58  92 N6        30.16R
6HR MIN TEMP:  60; 6HR MAX TEMP:  65; 6HR PCP:  0.04;

DICKINSON      RAIN      59  59 100 E12       30.13S FOG
6HR MIN TEMP:  57; 6HR MAX TEMP:  60; 6HR PCP:  0.41;

HETTINGER      CLOUDY    59  57  93 E6        30.14S FOG
6HR MIN TEMP:  57; 6HR MAX TEMP:  63;

$$

 *****  OTHER AIRPORT OBSERVATIONS IN OUR AREA  *****

CITY           SKY/WX    TMP DP  RH WIND       PRES   REMARKS
WALHALLA       NOT AVBL
GRAFTON AIRPOR FAIR      55  55 100 N8        30.16R
VALLEY CITY AR FAIR      57  57 100 N8        30.13S
CANDO          NOT AVBL
CAVALIER APRT  FAIR      55  54  94 N5        30.16S
GWINNER        FAIR      61  57  88 N6        30.11R
SHEYENNE NWR     N/A     59  57  94 N3        29.95
ROLLA          FAIR      50  50 100 NW6       30.20R
 ***** THE ABOVE OBSERVATIONS ARE NON NWS ARE NOT QUALITY
       CONTROLLED AND MAY MIS-REPORT RAIN FOR SNOW...
$$

  *****  WEATHER ACROSS NORTHERN MINNESOTA  *****

CITY           SKY/WX    TMP DP  RH WIND       PRES   REMARKS
FLAG ISLAND    CLOUDY    63  54  72 NE8       30.13S
WARROAD        CLEAR     55  52  88 N7        30.14S
ROSEAU         CLEAR     54  48  82 N5        30.14S
HALLOCK        CLEAR     55  54  94 CALM      30.14S
THF RVR FALLS  CLOUDY    58  54  86 NE13      30.13R
6HR MIN TEMP:  57; 6HR MAX TEMP:  64;

BAUDETTE       SUNNY     56  53  90 N5        30.13R
6HR MIN TEMP:  52; 6HR MAX TEMP:  60;

WASKISH        CLEAR     55  54  94 E6        30.11S
CROOKSTON      CLEAR     59  57  94 NE5       30.12R
STEPHEN NDAWN    N/A     57  55  94 N5          N/A
GREENBUSH NDAW   N/A     55  54  94 N5          N/A
$$
  *****  WEATHER ACROSS CENTRAL AND WEST MINNESOTA  *****

CITY           SKY/WX    TMP DP  RH WIND       PRES   REMARKS
FOSSTON        PTCLDY    59  55  88 NE3       30.12R
BEMIDJI        PTCLDY    59  55  88 N3        30.11R
PARK RAPIDS    MOCLDY    62  60  93 N3        30.10R
6HR MIN TEMP:  59; 6HR MAX TEMP:  65;

ELBOW LAKE     FAIR      64  62  93 NE7       30.08R
WADENA         MOCLDY    59  57  94 CALM      30.08R FOG
DETROIT LAKES  PTCLDY    64  61  88 CALM      30.10R
MOORHEAD       MOCLDY    63  61  94 NW5       30.09R
FERGUS FALLS   MOCLDY    63  63 100 CALM      30.09R
MORRIS MN      CLEAR     61  61 100 CALM      30.07R FOG
STAPLES        PTCLDY    61  59  94 CALM      30.08R
$$
  *****  WEATHER ELSEWHERE ACROSS MINNESOTA  *****

CITY           SKY/WX    TMP DP  RH WIND       PRES   REMARKS
DULUTH         MOSUNNY   59  54  83 N3        30.08R
6HR MIN TEMP:  56; 6HR MAX TEMP:  60;

INTRNTL FALLS  SUNNY     60  54  80 NE5       30.11R
6HR MIN TEMP:  55; 6HR MAX TEMP:  63;

ELY            FOG       55  55 100 CALM      30.10R VSB<1/4
CLOQUET        SUNNY     59  54  82 NE5       30.07S
WHEATON        CLOUDY    63  63 100 CALM      30.10R
BRAINERD       PTCLDY    61  60  97 NE3       30.07S
6HR MIN TEMP:  59; 6HR MAX TEMP:  62;

HIBBING        SUNNY     54  54 100 CALM      30.09R
6HR MIN TEMP:  47; 6HR MAX TEMP:  55;

ALEXANDRIA     PTCLDY    63  60  90 NE5       30.09R
6HR MIN TEMP:  62; 6HR MAX TEMP:  65;

SAINT CLOUD    MOCLDY    59  58  96 N6        30.05R
6HR MIN TEMP:  58; 6HR MAX TEMP:  62;

MINNEAPOLIS    CLOUDY    66  62  87 N9        30.01R
6HR MIN TEMP:  65; 6HR MAX TEMP:  68;

$$

  *****  WEATHER ACROSS SOUTH DAKOTA  *****

CITY           SKY/WX    TMP DP  RH WIND       PRES   REMARKS
SIOUX FALLS    PTCLDY    63  58  83 CALM      30.06R
6HR MIN TEMP:  61; 6HR MAX TEMP:  67;

BROOKINGS      MOCLDY    59  57  93 NW5       30.08R
WATERTOWN      MOCLDY    61  58  90 N7        30.09R
6HR MIN TEMP:  60; 6HR MAX TEMP:  62;

HURON          CLOUDY    60  58  92 NW5       30.08S
6HR MIN TEMP:  58; 6HR MAX TEMP:  67;

SISSETON         N/A     60  58  92 NW9       30.08R
ABERDEEN       MOCLDY    61  58  90 N5        30.10S
6HR MIN TEMP:  61; 6HR MAX TEMP:  66; 6HR PCP: TRACE;

MITCHELL       CLEAR     61  59  93 NW3       30.08S
PIERRE         CLOUDY    62  58  86 E6        30.10R
6HR MIN TEMP:  59; 6HR MAX TEMP:  64;

MOBRIDGE       CLOUDY    61  57  87 CALM      30.09S
RAPID CITY     PTCLDY    59  57  93 W8        30.08R
6HR MIN TEMP:  59; 6HR MAX TEMP:  67; 6HR PCP:  0.04;

$$

  *****  SOME WEATHER IN NEARBY STATES *****

CITY           SKY/WX    TMP DP  RH WIND       PRES   REMARKS
GLASGOW MT     CLEAR     57  54  89 VRB5      30.17R
6HR MIN TEMP:  56; 6HR MAX TEMP:  61;

GREAT FALLS MT CLOUDY    59  50  72 E5        30.19S
6HR MIN TEMP:  54; 6HR MAX TEMP:  65; 6HR PCP: TRACE;

CHEYENNE WY    CLEAR     58  55  90 S7        30.19F
6HR MIN TEMP:  57; 6HR MAX TEMP:  65;

SCOTTSBLUFF NE CLOUDY    62  54  74 NE21G28   30.20R
6HR MIN TEMP:  60; 6HR MAX TEMP:  68;

OMAHA NE       PTCLDY    70  66  87 N5        30.02R
6HR MIN TEMP:  70; 6HR MAX TEMP:  76;

DES MOINES IA  PTCLDY    71  66  84 N5        29.95F
6HR MIN TEMP:  70; 6HR MAX TEMP:  76;

DAVENPORT IA   FOG       67  66  97 CALM      29.91R VSB 1/4
6HR MIN TEMP:  64; 6HR MAX TEMP:  71;

CHICAGO IL     PTSUNNY   75  68  78 E6        29.91R
6HR MIN TEMP:  71; 6HR MAX TEMP:  75;

EAU CLAIRE WI  CLOUDY    66  65  96 NE7       29.96S
6HR MIN TEMP:  65; 6HR MAX TEMP:  66; 6HR PCP:  0.01;

LA CROSSE WI   CLOUDY    69  66  90 N8        29.92R
6HR MIN TEMP:  68; 6HR MAX TEMP:  72; 6HR PCP: TRACE;

$$

  *****  SOME NATIONAL WEATHER *****

CITY           SKY/WX    TMP DP  RH WIND       PRES   REMARKS
LA GUARDIA NY  PTSUNNY   79  73  82 NE7       29.91S
6HR MIN TEMP:  78; 6HR MAX TEMP:  81;

RALEIGH NC     MOSUNNY   78  73  84 CALM      29.95R
6HR MIN TEMP:  74; 6HR MAX TEMP:  78;

ATLANTA GA     MOSUNNY   75  70  84 SW8       30.05S
6HR MIN TEMP:  74; 6HR MAX TEMP:  78;

NEW ORLEANS LA PTCLDY    80  77  90 S3        30.03S
6HR MIN TEMP:  78; 6HR MAX TEMP:  81;

OKLAHOMA CITY  PTCLDY    72  71  97 CALM      30.00R
6HR MIN TEMP:  72; 6HR MAX TEMP:  75;

ALBUQUERQUE NM PTCLDY    71  52  50 N7        30.24R
6HR MIN TEMP:  71; 6HR MAX TEMP:  79;

SALT LAKE CITY PTCLDY    74  40  29 E7        30.05R
6HR MIN TEMP:  74; 6HR MAX TEMP:  83;

LOS ANGELES CA PTCLDY    69  64  84 SW5       29.89R
6HR MIN TEMP:  69; 6HR MC1F1C2F2C3F3C4F4C5F5C6F6C7F7C8F8C9F9CaFaCbFbCcFcCd!



USA.gov is the U.S. government's official web portal to all federal, state and local government web resources and services.